Location: Claremont
(33.9858°S, 18.4575°E)
Time: 04:54:12
(UTC+00:00)

CZ-4 R/B - Pass Details

Date: 03 March 2021
Orbit: 532 x 597 km, 97.7° (Epoch: 10 April)

Event Time Altitude Azimuth Distance (km) Brightness Sun altitude
Rises 17:41:01 0° 158° (SSE) 2,763 4.8 -5.2°
Reaches altitude 10° 17:43:20 10° 149° (SSE) 1,849 3.8 -5.6°
Maximum altitude 17:47:00 35° 82° (E) 907 1.9 -6.4°
Drops below altitude 10° 17:50:34 10° 15° (NNE) 1,797 3.7 -7.1°
Sets 17:52:47 0° 6° (N) 2,674 4.6 -7.6°
